EUTELSAT 7A

Last updated on Wed Jul 09 2025 00:02:43 GMT+0000 (Coordinated Universal Time)

1 28187U 04008A 25189.39251470 .00000114 00000+0 00000+0 0 9998 2 28187 4.9537 76.1408 0001695 40.3250 172.2304 1.00275044 77902
UTC large
Height (km)
Speed (km/s)
/
Latitude / Longitude
Inclination (degrees)
Orbital Period (minutes)
Azimuth
Elevation
Range (km)
Doppler Factor

Next 0 passes for location: London (51.5072 / 0.1276)

Sorry there are no passes over London.